Flag for Germany Weather past 2 weeks in Bingen am Rhein, Rhineland-Palatinate, Germany

Now
42 °F

Clear.


Feels Like: 38 °F
Forecast: 38 / 64 °F
Wind: 7 mph from Northeast

Location: Wiesbaden Airport

Current Time: Apr 19, 2015 at 7:32:31 AM

Latest Report: Apr 19, 2015 at 6:58 AM


Visibility: N/A

Pressure: 30.18 "Hg

Humidity: 57%

Dew point: 28 °F

Location of Bingen am RheinLocation

Historic Weather in Bingen am Rhein — Graph

°F

Bingen am Rhein temperature yesterday

Maximum temperature yesterday: 56 °F (at 3:58 PM)
Minimum temperature yesterday: 41 °F (at 5:58 AM)
Average temperature yesterday: 49 °F

Past Weeks' High & Low Weather Summary

 TemperatureHumidityPressure
High76 °F (Apr 15, 3:58 PM)97% (Apr 10, 6:58 AM)30.66 "Hg (Apr 10, 6:58 AM)
Low31 °F (Apr 7, 6:58 AM)31% (Apr 15, 5:58 PM)29.85 "Hg (Apr 16, 6:58 PM)
Average51 °F61%30.26 "Hg
* Reported Apr 4 5:58 AM — Apr 19 5:58 AM, Bingen am Rhein, Weather by CustomWeather, © 2015

Note: Actual official high and low records may vary slightly from our data, if they occured in-between our weather recording intervals... More about our weather records

Advertising

Bingen am Rhein weather history for previous 24 hours

 ConditionsComfort  
Time TempWeatherWind HumidityBarometerVisibility
5:58 AM
Sun, Apr 19
40 °FClear.5 mph59%30.18 "HgN/A
4:58 AM42 °FClear.5 mph58%30.19 "HgN/A
3:58 AM43 °FClear.5 mph54%30.20 "HgN/A
2:58 AM43 °FClear.3 mph57%30.22 "HgN/A
1:58 AM46 °FClear.6 mph50%30.24 "HgN/A
12:58 AM45 °FClear.2 mph53%30.25 "HgN/A
11:58 PM
Sat, Apr 18
46 °FClear.3 mph50%30.25 "HgN/A
10:58 PM46 °FClear.6 mph50%30.25 "HgN/A
9:58 PM48 °FClear.6 mph46%30.25 "HgN/A
8:58 PM50 °FSunny.6 mph43%30.24 "HgN/A
7:58 PM54 °FSunny.6 mph38%30.25 "HgN/A
6:58 PM55 °FSunny.10 mph36%30.24 "HgN/A
5:58 PM56 °FSunny.10 mph34%30.24 "HgN/A
4:58 PM56 °FSunny.12 mph36%30.25 "HgN/A
3:58 PM56 °FPassing clouds.10 mph36%30.27 "HgN/A
2:58 PM55 °FScattered clouds.12 mph39%30.29 "HgN/A
1:58 PM55 °FSunny.10 mph41%30.29 "HgN/A
12:59 PM54 °FPartly sunny.9 mph44%30.29 "HgN/A
11:58 AM53 °FPassing clouds.10 mph44%30.30 "HgN/A
10:58 AM52 °FPartly sunny.7 mph47%30.30 "HgN/A
9:58 AM50 °FSunny.12 mph50%30.28 "HgN/A
8:58 AM48 °FSunny.10 mph61%30.27 "HgN/A
7:58 AM43 °FPartly sunny.8 mph71%30.27 "HgN/A
Weather by CustomWeather, © 2015

See weather overviewHow to use our weather pages